OBJECT XY, 66912

Orbit data source: Space-Track

You're viewing an Uncataloged Satellite

Recently launched and/or uncataloged satellites may have evolving metadata. Metadata may include but not limited to: Owner, Maufacturer, Bus, Motor, and Mission.

OBJECT XY, 66912 is an American satellite in LEO that was delivered to and deployed from the ISS. Unknown objects in Earth's orbit typically refer to objects detected orbiting the Earth but have not yet been identified or cataloged. These objects could be anything from previously untracked satellites, spent rocket stages, debris from satellite collisions, or even natural meteoroids temporarily captured by Earth's gravity.

Loading next visibility...
Identifier
66912, 1998-067XY
Orbit
LEO
Country
Flag of USUS
Related business
None
Manufacturer
Unknown
Mission
Operational spacecraft
Bus & Motor
Unknown
Mass
Unknown
Launch date (UTC)
1998-11-20 (27 years ago)
Launch vehicle
FALCON 9
Launch site
Tyuratam Missile And Space Complex (TTMTR)
Object type
Unknown
Shape & HBR
Unknown
Radar Cross Section
RCS unknown

Expand to show TLE details & history
Last TLE update: 8 hours ago

TLE from 8 hours ago
0 OBJECT XY
1 66912U 98067XY  25351.62311854  .00043985  00000-0  73123-3 0  9998
2 66912  51.6305 118.1486 0004171 250.1115 109.9425 15.51610619  2369
Epoch: 2025-12-17T14:57Z
TLE epoch observation values (Epoch: 2025-12-17T14:57:17.441Z)
Latitude
-0.00006°
Longitude
167.33556°
Altitude
413.731 km
Speed
7.664 km/s
True Right ascension
07h 52m 35s
True Declination
0° 00' 00"
Sunlit
Object was in full shadow at epoch
Visualization orbit readout
Latitude
Unknown
Longitude
Unknown
Altitude
Unknown
Speed
Unknown
Apparent Right ascension
Unknown
Apparent Declination
Unknown
Sunlit
N/A
Visualization observer readout
Local Sidereal Time
22:06:53
Azimuth
Unknown
Elevation
Unknown
Doppler factor
Unknown
Orbital elements
Apogee altitude
415.365 km
Perigee altitude
409.701 km
Semi-major axis
6,790.67 km
Eccentricity
0.00042
Inclination
51.6305°
RAAN
118.1486°
Arg. of periapsis
250.1115°
True anomaly
109.98742°
Mean anomaly
109.9425°
Eccentric anomaly
109.96496°
Mean motion
3.87859 °/min
Orbital period
92.82 mins
BSTAR
0.00073123
Loading maneuver chart data...
Computing Atmospheric mass density...

Documentation

Showing up to 5 results
|